Weather History for Monett, MO

Change the Weather History Date:

Tuesday, March 19, 2013

  Actual Average (KJLN) Record (KJLN)
Temperature  
Mean Temperature 40 °F 50 °F  
Max Temperature 50 °F 61 °F 84 °F (1995)
Min Temperature 30 °F 39 °F 13 °F (1965)
Degree Days  
Heating Degree Days 25 15  
Month to date heating degree days 344  
Since 1 July heating degree days 3598  
Cooling Degree Days 0 0  
Month to date cooling degree days 0  
Year to date cooling degree days 1  
Moisture  
Dew Point 24 °F    
Average Humidity 58    
Maximum Humidity 93    
Minimum Humidity 30    
Precipitation  
Precipitation 0.00 in 0.11 in 3.06 in (2012)
Month to date precipitation 2.00  
Year to date precipitation 6.35  
Sea Level Pressure  
Sea Level Pressure 30.15 in    
Wind  
Wind Speed 6 mph (ENE)    
Max Wind Speed 14 mph    
Max Gust Speed 20 mph    
Visibility 10 miles    
Events      
T = Trace of Precipitation, MM = Missing Value Source: NWS Daily Summary

Daily Weather History Graph

Daily Weather History Graph

Search for Another Location

Airport:

Trip Planner

Search our weather history database for the weather conditions in past years. The results will help you decide how hot, cold, wet, or windy it might be!

Date:

Astronomy

Mar. 19, 2013 Rise Set
Actual Time 7:20 AM CDT 7:27 PM CDT
Civil Twilight 6:54 AM CDT 7:53 PM CDT
Nautical Twilight 6:24 AM CDT 8:23 PM CDT
Astronomical Twilight 5:54 AM CDT 8:54 PM CDT
Moon 12:19 PM CDT (3/19) 2:06 AM CDT (3/19)
Length of Visible Light 12h 58m
Length of Day
12h 06m
Waxing Crescent, 50% of the Moon is Illuminated
Mar 19
Waxing Crescent
Mar 19
First Quarter
Mar 27
Full
Apr 2
Last Quarter
Apr 10
New

Hourly Weather History & Observations

Time (CDT) Temp. Windchill Dew Point Humidity Pressure Visibility Wind Dir Wind Speed Gust Speed Precip Events Conditions
12:15 AM 41.0 °F 38.0 °F 26.6 °F 57% 30.05 in 10.0 mi North 4.6 mph - N/A   Clear
12:35 AM 39.2 °F 34.2 °F 26.6 °F 61% 30.04 in 10.0 mi North 6.9 mph - N/A   Clear
12:55 AM 37.4 °F 32.8 °F 26.6 °F 65% 30.05 in 10.0 mi North 5.8 mph - N/A   Clear
1:15 AM 37.4 °F 34.9 °F 24.8 °F 60% 30.05 in 10.0 mi NE 3.5 mph - N/A   Clear
1:35 AM 35.6 °F 30.7 °F 24.8 °F 65% 30.04 in 10.0 mi ENE 5.8 mph - N/A   Clear
1:55 AM 37.4 °F 31.4 °F 24.8 °F 60% 30.03 in 10.0 mi East 8.1 mph - N/A   Clear
2:15 AM 35.6 °F 30.7 °F 26.6 °F 70% 30.05 in 10.0 mi ENE 5.8 mph - N/A   Clear
2:35 AM 35.6 °F 29.9 °F 26.6 °F 70% 30.05 in 10.0 mi NNE 6.9 mph - N/A   Clear
2:55 AM 35.6 °F 29.9 °F 26.6 °F 70% 30.06 in 10.0 mi NNE 6.9 mph - N/A   Clear
3:15 AM 35.6 °F 29.2 °F 26.6 °F 70% 30.06 in 10.0 mi NE 8.1 mph - N/A   Clear
3:35 AM 35.6 °F 30.7 °F 26.6 °F 70% 30.08 in 10.0 mi NE 5.8 mph - N/A   Clear
3:55 AM 35.6 °F 29.9 °F 26.6 °F 70% 30.08 in 10.0 mi NE 6.9 mph - N/A   Clear
4:15 AM 33.8 °F 27.0 °F 24.8 °F 70% 30.07 in 10.0 mi ENE 8.1 mph - N/A   Clear
4:35 AM 32.0 °F 25.6 °F 26.6 °F 80% 30.07 in 10.0 mi ENE 6.9 mph - N/A   Clear
4:55 AM 32.0 °F 24.8 °F 24.8 °F 75% 30.07 in 10.0 mi ENE 8.1 mph - N/A   Clear
5:15 AM 32.0 °F 24.2 °F 24.8 °F 75% 30.08 in 10.0 mi ENE 9.2 mph - N/A   Clear
5:35 AM 32.0 °F 24.2 °F 24.8 °F 75% 30.08 in 10.0 mi NE 9.2 mph - N/A   Clear
5:55 AM 32.0 °F 25.6 °F 23.0 °F 69% 30.08 in 10.0 mi East 6.9 mph - N/A   Clear
6:15 AM 32.0 °F 27.5 °F 23.0 °F 69% 30.09 in 10.0 mi ESE 4.6 mph - N/A   Clear
6:35 AM 32.0 °F 27.5 °F 23.0 °F 69% 30.11 in 10.0 mi ESE 4.6 mph - N/A   Clear
6:55 AM 32.0 °F 27.5 °F 21.2 °F 64% 30.12 in 10.0 mi East 4.6 mph - N/A   Clear
7:15 AM 32.0 °F 28.7 °F 23.0 °F 69% 30.13 in 10.0 mi ENE 3.5 mph - N/A   Clear
7:35 AM 30.2 °F 26.7 °F 23.0 °F 75% 30.14 in 10.0 mi ENE 3.5 mph - N/A   Clear
7:55 AM 32.0 °F 27.5 °F 23.0 °F 69% 30.14 in 10.0 mi ENE 4.6 mph - N/A   Clear
8:15 AM 32.0 °F 27.5 °F 24.8 °F 75% 30.15 in 10.0 mi East 4.6 mph - N/A   Clear
8:35 AM 33.8 °F 30.8 °F 24.8 °F 70% 30.16 in 10.0 mi ESE 3.5 mph - N/A   Clear
8:55 AM 35.6 °F 31.7 °F 23.0 °F 60% 30.17 in 10.0 mi ESE 4.6 mph - N/A   Clear
9:15 AM 37.4 °F 32.8 °F 23.0 °F 56% 30.17 in 10.0 mi East 5.8 mph - N/A   Clear
9:35 AM 37.4 °F 33.8 °F 19.4 °F 48% 30.18 in 10.0 mi East 4.6 mph - N/A   Clear
9:55 AM 39.2 °F 35.0 °F 19.4 °F 45% 30.18 in 10.0 mi ESE 5.8 mph - N/A   Clear
10:15 AM 41.0 °F 38.0 °F 19.4 °F 42% 30.19 in 10.0 mi East 4.6 mph - N/A   Clear
10:35 AM 41.0 °F 38.0 °F 19.4 °F 42% 30.20 in 10.0 mi East 4.6 mph - N/A   Mostly Cloudy
10:55 AM 41.0 °F 38.0 °F 19.4 °F 42% 30.20 in 10.0 mi ESE 4.6 mph - N/A   Overcast
11:15 AM 42.8 °F 40.1 °F 17.6 °F 36% 30.19 in 10.0 mi ENE 4.6 mph - N/A   Overcast
11:35 AM 42.8 °F 41.1 °F 19.4 °F 39% 30.19 in 10.0 mi ESE 3.5 mph - N/A   Overcast
11:55 AM 44.6 °F 41.4 °F 19.4 °F 37% 30.19 in 10.0 mi East 5.8 mph - N/A   Overcast
12:15 PM 44.6 °F 43.1 °F 17.6 °F 34% 30.20 in 10.0 mi SE 3.5 mph - N/A   Overcast
12:35 PM 46.4 °F 43.5 °F 21.2 °F 37% 30.20 in 10.0 mi East 5.8 mph - N/A   Overcast
12:55 PM 46.4 °F 42.9 °F 19.4 °F 34% 30.18 in 10.0 mi East 6.9 mph - N/A   Overcast
1:15 PM 48.2 °F - 17.6 °F 30% 30.18 in 10.0 mi ENE 6.9 mph - N/A   Scattered Clouds
1:35 PM 48.2 °F - 19.4 °F 32% 30.18 in 10.0 mi ENE 8.1 mph 19.6 mph N/A   Scattered Clouds
1:55 PM 48.2 °F - 17.6 °F 30% 30.17 in 10.0 mi ESE 3.5 mph - N/A   Scattered Clouds
2:15 PM 50.0 °F - 19.4 °F 30% 30.16 in 10.0 mi ESE 4.6 mph - N/A   Scattered Clouds
2:35 PM 50.0 °F - 19.4 °F 30% 30.15 in 10.0 mi NE 6.9 mph - N/A   Clear
2:55 PM 50.0 °F - 21.2 °F 32% 30.15 in 10.0 mi East 4.6 mph - N/A   Scattered Clouds
3:15 PM 50.0 °F - 23.0 °F 35% 30.15 in 10.0 mi NNE 9.2 mph - N/A   Scattered Clouds
3:35 PM 50.0 °F - 23.0 °F 35% 30.15 in 10.0 mi NNE 9.2 mph - N/A   Mostly Cloudy
3:55 PM 48.2 °F - 21.2 °F 34% 30.15 in 10.0 mi NNE 10.4 mph - N/A   Overcast
4:15 PM 46.4 °F 40.7 °F 21.2 °F 37% 30.16 in 10.0 mi NNE 12.7 mph 18.4 mph N/A   Overcast
4:35 PM 46.4 °F 41.5 °F 21.2 °F 37% 30.17 in 10.0 mi NNE 10.4 mph 18.4 mph N/A   Overcast
4:55 PM 44.6 °F 38.4 °F 23.0 °F 43% 30.17 in 10.0 mi NNE 12.7 mph 16.1 mph N/A   Overcast
5:15 PM 46.4 °F 40.4 °F 23.0 °F 40% 30.17 in 10.0 mi NNE 13.8 mph 17.3 mph N/A   Overcast
5:35 PM 44.6 °F 38.8 °F 23.0 °F 43% 30.17 in 10.0 mi NNE 11.5 mph 16.1 mph N/A   Overcast
5:55 PM 44.6 °F 38.4 °F 24.8 °F 46% 30.18 in 10.0 mi NNE 12.7 mph 17.3 mph N/A   Overcast
6:15 PM 44.6 °F 38.8 °F 24.8 °F 46% 30.18 in 10.0 mi NNE 11.5 mph 18.4 mph N/A   Overcast
6:55 PM 42.8 °F 36.6 °F 24.8 °F 49% 30.19 in 10.0 mi NNE 11.5 mph - N/A   Overcast
7:15 PM 41.0 °F 34.3 °F 28.4 °F 61% 30.19 in 10.0 mi NNE 11.5 mph 19.6 mph N/A   Overcast
7:35 PM 41.0 °F 34.7 °F 28.4 °F 61% 30.20 in 10.0 mi NNE 10.4 mph 18.4 mph N/A   Scattered Clouds
7:55 PM 39.2 °F 32.5 °F 28.4 °F 65% 30.20 in 10.0 mi NNE 10.4 mph - N/A   Scattered Clouds
8:35 PM 39.2 °F 33.6 °F 30.2 °F 70% 30.21 in 10.0 mi NNE 8.1 mph - N/A   Overcast
8:55 PM 39.2 °F 35.0 °F 30.2 °F 70% 30.22 in 10.0 mi NNE 5.8 mph - N/A   Overcast
9:15 PM 37.4 °F 33.8 °F 32.0 °F 81% 30.22 in 10.0 mi NNE 4.6 mph - N/A   Overcast
9:35 PM 37.4 °F 33.8 °F 32.0 °F 81% 30.23 in 10.0 mi NE 4.6 mph - N/A   Overcast
9:55 PM 35.6 °F 32.8 °F 32.0 °F 87% 30.23 in 10.0 mi ENE 3.5 mph - N/A   Scattered Clouds
10:15 PM 35.6 °F - 30.2 °F 81% 30.23 in 10.0 mi Calm Calm - N/A   Mostly Cloudy
10:35 PM 35.6 °F 30.7 °F 30.2 °F 81% 30.23 in 10.0 mi East 5.8 mph - N/A   Overcast
10:55 PM 33.8 °F - 32.0 °F 93% 30.24 in 10.0 mi Calm Calm - N/A   Overcast
11:15 PM 33.8 °F - 30.2 °F 87% 30.24 in 10.0 mi Calm Calm - N/A   Scattered Clouds
11:35 PM 35.6 °F - 30.2 °F 81% 30.24 in 10.0 mi Calm Calm - N/A   Clear
11:55 PM 33.8 °F 30.8 °F 30.2 °F 87% 30.25 in 10.0 mi SW 3.5 mph - N/A   Clear